SCP
0 0 0 0 0 0 0 0 0 0 0 0 0 0 0 0 0 0 0 0 0 0 0 0 0 0 0 0 0 0 0 0 0 0 0 0 0 0
0 0 0 0 0 0 0 0 0 0 0 0 0 0 0 0 0 0 0 0 0 0 0 0 0 0 0 0 0 0 0 0 0 0 0 0 0 0
0 0 0 0 0 0 0 0 0 0 0 0 0 0 0 0 0 0 0 0 0 0 0 0 0 0 0 0 0 0 0 0 0 0 0 0 0 0
0 0 0 0 0 0 0 0 0 0 0 0 0 0 0 0 0 0 0 0 0 0 0 0 0 0 0 0 0 0 0 0 0 0 0 0 0 0
0 0 0 0 0 0 0 0 0 0 0 0 0 0 0 0 0 0 0 0 0 0 0 0 0 0 0 0 0 0 0 0 0 0 0 0 0 0
0 0 0 0 0 0 0 0 0 0 0 0 0 0 0 0 0 0 0 0 0 0 0 0 0 0 0 0 0 0 0 0 0 0 0 0 0 0
0 0 0 0 0 0 0 0 0 0 0 0 0 0 0 0 0 0 0 0 0 0 0 0 0 0 0 0 0 0 0 0 0 0 0 0 0 0
0 0 0 0 0 0 0 0 0 0 0 0 0 0 0 0 0 0 0 0 0 0 0 0 0 0 0 0 0 0 0 0 0 0 0 0 0 0
0 0 0 0 0 0 0 0 0 0 0 0 0 0 0 0 0 0 0 0 0 0 0 0 0 0 0 0 0 0 0 0 0 0 0 0 0 0
0 0 0 0 0 0 0 0 0 0 0 0 0 0 0 0 0 0 0 0 0 0 0 0 0 0 0 0 0 0 0 0 0 0 0 0 0 0
0 0 0 0 0 0 0 0 0 0 0 0 0 0 0 0 0 0 0 0 0 0 0 0 0 0 0 0 0 0 0 0 0 0 0 0 0 0
0 0 0 0 0 0 0 0 0 0 0 0 0 0 0 0 0 0 0 0 0 0 0 0 0 0 0 0 0 0 0 0 0 0 0 0 0 0
0 0 0 0 0 0 0 0 0 0 0 0 0 0 0 0 0 0 0 0 0 0 0 0 0 0 0 0 0 0 0 0 0 0 0 0 0 0
0 0 0 0 0 0 0 0 0 0 0 0 0 0 0 0 0 0 0 0 0 0 0 0 0 0 0 0 0 0 0 0 0 0 0 0 0 0
0 0 0 0 0 0 0 0 0 0 0 0 0 0 0 0 0 0 0 0 0 0 0 0 0 0 0 0 0 0 0 0 0 0 0 0 0 0
0 0 0 0 0 0 0 0 0 0 0 0 0 0 0 0 0 0 0 0 0 0 0 0 0 0 0 0 0 0 0 0 0 0 0 0 0 0
0 0 0 0 0 0 0 0 0 0 0 0 0 0 0 0 0 0 0 0 0 0 0 0 0 0 0 0 0 0 0 0 0 0 0 0 0 0
0 0 0 0 0 0 0 0 0 0 0 0 0 0 0 0 0 0 0 0 0 0 0 0 0 0 0 0 0 0 0 0 0 0 0 0 0 0
0 0 0 0 0 0 0 0 0 0 0 0 0 0 0 0 0 0 0 0 0 0 0 0 0 0 0 0 0 0 0 0 0 0 0 0 0 0
0 0 0 0 0 0 0 0 0 0 0 0 0 0 0 0 0 0 0 0 0 0 0 0 0 0 0 0 0 0 0 0 0 0 0 0 0 0
0 0 0 0 0 0 0 0 0 0 0 0 0 0 0 0 0 0 0 0 0 0 0 0 0 0 0 0 0 0 0 0 0 0 0 0 0 0
0 0 0 0 0 0 0 0 0 0 0 0 0 0 0 0 0 0 0 0 0 0 0 0 0 0 0 0 0 0 0 0 0 0 0 0 0 0
0 0 0 0 0 0 0 0 0 0 0 0 0 0 0 0 0 0 0 0 0 0 0 0 0 0 0 0 0 0 0 0 0 0 0 0 0 0
Wind_Speed_500mb
57 56 58 54 54 54 53 48 45 38 34 38 38 30 29 27 23 23 23 24 27 23 24 25 25 27 27 29 29 32 34 35 37 41 46 51 53 54
64 63 63 60 59 59 58 57 55 54 52 28 32 32 29 29 28 27 26 26 29 28 25 28 28 29 27 31 33 33 35 35 39 44 49 50 52 56
69 69 68 64 63 63 62 61 62 62 67 61 43 38 42 39 35 32 30 31 30 32 28 30 32 32 30 31 36 36 36 36 42 45 48 49 54 58
77 75 74 69 68 66 67 69 69 68 70 68 58 56 51 46 42 38 38 35 34 33 33 32 34 32 32 33 36 37 35 38 44 46 46 52 57 59
84 82 80 75 73 74 74 75 74 73 73 74 68 59 58 57 53 47 44 40 38 34 35 35 38 35 34 36 38 37 36 40 43 46 45 54 57 58
93 92 88 86 80 79 80 80 79 79 78 77 75 69 66 61 57 56 51 44 40 36 37 36 38 35 36 39 39 39 41 42 45 46 47 55 57 59
102 102 99 96 90 86 85 84 86 86 86 84 82 78 75 72 69 57 50 46 43 41 38 40 35 36 38 40 37 39 42 44 45 42 50 53 55 56
108 108 106 104 101 96 93 89 91 91 93 92 90 90 83 77 67 59 57 54 49 44 36 35 36 37 39 37 36 39 43 45 43 47 50 51 56 56
102 106 110 111 108 105 102 98 99 96 94 91 94 93 88 77 68 64 66 60 52 48 45 44 40 38 38 38 37 39 44 43 42 47 49 53 55 52
103 101 103 105 109 107 105 107 109 107 104 98 102 97 89 78 70 69 61 53 56 56 50 51 42 36 36 39 38 41 37 38 42 44 47 52 52 48
107 108 108 107 105 102 102 110 114 115 108 102 103 97 91 81 78 75 74 69 65 62 55 53 51 39 34 38 40 34 32 35 40 41 49 48 44 45
106 111 113 113 109 109 110 110 117 119 112 111 108 105 98 93 90 86 79 72 70 65 62 56 51 38 26 32 32 30 34 35 36 43 45 39 38 42
99 105 108 107 104 105 111 113 120 108 114 113 110 108 109 103 99 93 87 78 79 73 60 49 47 42 38 33 33 33 34 29 36 38 34 34 27 39
93 96 102 99 98 96 98 102 103 105 110 113 109 111 114 112 109 100 94 85 82 71 65 66 62 51 44 43 41 34 31 35 35 35 33 34 31 35
75 86 91 98 97 94 89 86 79 95 113 116 117 117 112 104 105 106 97 88 81 74 74 69 62 52 50 48 44 40 37 34 35 26 36 37 38 37
59 64 72 84 93 95 91 86 79 87 104 113 117 112 103 101 104 102 99 93 87 81 76 69 62 57 53 48 44 40 34 30 32 34 34 37 36 33
56 59 60 64 75 89 97 96 87 86 100 107 113 113 106 96 99 99 98 95 92 86 80 71 64 55 51 48 46 38 34 36 30 32 35 36 35 32
68 72 74 73 73 77 86 95 102 98 98 103 109 110 105 98 94 95 98 99 96 89 78 70 65 59 54 52 44 39 36 31 31 33 36 36 39 28
69 78 82 83 81 78 78 82 91 98 101 104 110 110 104 99 96 94 99 98 94 87 76 69 67 65 59 55 39 36 32 33 32 37 33 33 40 31
69 73 80 86 87 84 83 80 79 84 91 101 108 108 105 100 99 96 100 101 95 88 78 73 72 69 62 51 39 34 29 31 36 35 32 28 29 26
71 74 76 80 87 90 87 84 79 79 84 89 99 104 105 101 99 98 99 98 95 89 80 79 74 54 41 45 43 37 29 31 30 29 27 24 24 34
71 73 77 79 82 85 85 85 82 80 82 85 88 93 99 99 98 98 99 98 96 87 79 71 61 58 57 50 40 34 29 28 24 24 25 19 21 23
79 79 78 79 80 84 86 85 83 85 86 86 83 86 91 94 95 94 93 95 92 83 75 65 63 60 50 42 37 31 30 23 22 23 22 16 18 25
Wind_Direction_500mb
249 247 245 241 239 239 240 238 238 247 249 242 240 238 237 246 260 274 284 289 294 304 307 309 311 312 311 314 315 316 318 321 322 321 321 321 322 322
251 250 248 245 242 239 240 241 240 243 248 258 243 247 243 249 258 270 274 281 289 295 300 301 302 303 307 307 310 311 315 317 316 318 319 320 323 322
248 251 253 251 248 245 243 244 244 244 247 247 251 249 248 254 262 268 275 278 284 291 293 293 297 302 301 299 305 308 312 312 314 316 317 319 322 323
249 250 252 252 250 248 246 245 245 245 247 252 246 250 254 261 264 268 271 274 278 282 288 292 293 298 294 296 300 304 306 308 310 314 315 318 321 321
252 252 254 253 252 251 249 248 247 246 246 249 251 246 250 255 259 262 265 269 272 276 282 290 295 299 290 295 300 302 301 305 309 312 311 315 319 322
253 253 253 254 253 253 251 250 250 248 247 247 250 248 247 249 253 256 260 265 268 272 278 285 287 285 287 295 296 297 298 306 310 309 311 316 319 323
257 255 255 255 255 255 255 253 251 249 246 245 247 248 247 247 250 259 262 259 264 265 271 276 274 280 288 290 289 290 299 305 306 303 310 314 319 322
259 259 258 257 257 256 256 256 255 253 251 247 249 249 252 253 253 253 255 254 257 264 266 269 270 278 282 282 282 287 296 301 300 304 311 316 321 323
264 263 262 260 259 258 258 257 257 255 252 253 253 253 255 257 253 251 252 255 259 263 267 270 271 273 275 276 278 284 291 292 299 309 311 318 319 323
268 266 265 265 264 262 261 260 257 257 253 250 252 253 254 254 251 253 257 257 252 256 262 266 267 267 267 269 273 280 282 291 303 307 311 312 318 323
268 268 266 265 263 264 261 259 260 259 258 258 257 255 255 251 247 246 243 242 249 254 257 261 267 265 258 262 269 269 279 293 303 303 308 313 315 318
268 267 267 266 265 264 262 261 258 257 258 256 253 254 252 247 245 245 246 244 247 251 255 253 260 257 261 259 253 263 287 297 295 302 310 312 314 318
267 267 268 268 267 264 263 262 261 264 262 260 257 253 250 247 246 244 246 246 246 248 251 251 249 246 245 255 262 271 280 278 295 301 299 310 320 320
268 270 271 271 271 270 267 265 265 265 262 260 257 253 249 245 246 248 249 249 249 248 250 250 250 250 252 257 264 271 274 289 291 292 296 306 321 322
269 269 271 272 272 272 269 268 266 257 253 254 255 254 254 254 248 245 243 242 241 240 243 244 248 248 250 256 264 268 278 285 291 283 300 307 320 324
281 274 269 268 267 267 268 265 259 253 251 254 255 257 256 249 245 239 234 233 234 237 238 239 241 243 249 254 258 266 276 281 281 284 295 307 314 317
289 283 274 265 261 259 257 255 252 251 249 250 251 251 250 249 244 237 231 231 231 233 233 234 236 239 244 247 253 261 269 274 275 287 295 305 306 314
282 274 273 270 265 262 259 254 252 249 248 247 246 248 250 248 244 237 231 230 230 232 232 230 228 229 234 243 251 257 260 262 270 282 294 295 300 313
277 277 273 272 272 269 266 263 257 253 249 245 245 247 247 247 244 239 231 229 229 231 230 225 223 225 228 238 246 248 252 264 270 282 283 287 298 313
280 283 281 278 275 273 272 267 263 256 249 246 243 243 243 244 242 237 233 230 229 229 225 222 224 226 230 235 241 251 250 265 273 273 280 283 294 305
289 290 288 283 280 276 274 272 266 260 253 248 245 243 243 242 241 239 235 232 230 229 226 225 229 229 227 229 237 244 254 270 270 278 284 290 300 308
290 289 290 290 286 281 277 272 267 259 253 249 246 245 245 243 241 239 234 230 229 230 230 227 220 214 218 230 237 247 247 245 256 268 263 280 285 289
295 293 291 288 287 284 276 269 266 261 256 251 246 243 242 240 238 238 237 231 229 227 224 219 211 215 223 229 240 243 239 237 251 262 280 246 264 274
Wind_Speed_850mb
57 56 58 54 54 54 53 48 45 38 34 38 38 30 29 27 23 23 23 24 27 23 24 25 25 27 27 29 29 32 34 35 37 41 46 51 53 54
64 63 63 60 59 59 58 57 55 54 52 28 32 32 29 29 28 27 26 26 29 28 25 28 28 29 27 31 33 33 35 35 39 44 49 50 52 56
69 69 68 64 63 63 62 61 62 62 67 61 43 38 42 39 35 32 30 31 30 32 28 30 32 32 30 31 36 36 36 36 42 45 48 49 54 58
77 75 74 69 68 66 67 69 69 68 70 68 58 56 51 46 42 38 38 35 34 33 33 32 34 32 32 33 36 37 35 38 44 46 46 52 57 59
84 82 80 75 73 74 74 75 74 73 73 74 68 59 58 57 53 47 44 40 38 34 35 35 38 35 34 36 38 37 36 40 43 46 45 54 57 58
93 92 88 86 80 79 80 80 79 79 78 77 75 69 66 61 57 56 51 44 40 36 37 36 38 35 36 39 39 39 41 42 45 46 47 55 57 59
102 102 99 96 90 86 85 84 86 86 86 84 82 78 75 72 69 57 50 46 43 41 38 40 35 36 38 40 37 39 42 44 45 42 50 53 55 56
108 108 106 104 101 96 93 89 91 91 93 92 90 90 83 77 67 59 57 54 49 44 36 35 36 37 39 37 36 39 43 45 43 47 50 51 56 56
102 106 110 111 108 105 102 98 99 96 94 91 94 93 88 77 68 64 66 60 52 48 45 44 40 38 38 38 37 39 44 43 42 47 49 53 55 52
103 101 103 105 109 107 105 107 109 107 104 98 102 97 89 78 70 69 61 53 56 56 50 51 42 36 36 39 38 41 37 38 42 44 47 52 52 48
107 108 108 107 105 102 102 110 114 115 108 102 103 97 91 81 78 75 74 69 65 62 55 53 51 39 34 38 40 34 32 35 40 41 49 48 44 45
106 111 113 113 109 109 110 110 117 119 112 111 108 105 98 93 90 86 79 72 70 65 62 56 51 38 26 32 32 30 34 35 36 43 45 39 38 42
99 105 108 107 104 105 111 113 120 108 114 113 110 108 109 103 99 93 87 78 79 73 60 49 47 42 38 33 33 33 34 29 36 38 34 34 27 39
93 96 102 99 98 96 98 102 103 105 110 113 109 111 114 112 109 100 94 85 82 71 65 66 62 51 44 43 41 34 31 35 35 35 33 34 31 35
75 86 91 98 97 94 89 86 79 95 113 116 117 117 112 104 105 106 97 88 81 74 74 69 62 52 50 48 44 40 37 34 35 26 36 37 38 37
59 64 72 84 93 95 91 86 79 87 104 113 117 112 103 101 104 102 99 93 87 81 76 69 62 57 53 48 44 40 34 30 32 34 34 37 36 33
56 59 60 64 75 89 97 96 87 86 100 107 113 113 106 96 99 99 98 95 92 86 80 71 64 55 51 48 46 38 34 36 30 32 35 36 35 32
68 72 74 73 73 77 86 95 102 98 98 103 109 110 105 98 94 95 98 99 96 89 78 70 65 59 54 52 44 39 36 31 31 33 36 36 39 28
69 78 82 83 81 78 78 82 91 98 101 104 110 110 104 99 96 94 99 98 94 87 76 69 67 65 59 55 39 36 32 33 32 37 33 33 40 31
69 73 80 86 87 84 83 80 79 84 91 101 108 108 105 100 99 96 100 101 95 88 78 73 72 69 62 51 39 34 29 31 36 35 32 28 29 26
71 74 76 80 87 90 87 84 79 79 84 89 99 104 105 101 99 98 99 98 95 89 80 79 74 54 41 45 43 37 29 31 30 29 27 24 24 34
71 73 77 79 82 85 85 85 82 80 82 85 88 93 99 99 98 98 99 98 96 87 79 71 61 58 57 50 40 34 29 28 24 24 25 19 21 23
79 79 78 79 80 84 86 85 83 85 86 86 83 86 91 94 95 94 93 95 92 83 75 65 63 60 50 42 37 31 30 23 22 23 22 16 18 25
Wind_Direction_850mb
249 247 245 241 239 239 240 238 238 247 249 242 240 238 237 246 260 274 284 289 294 304 307 309 311 312 311 314 315 316 318 321 322 321 321 321 322 322
251 250 248 245 242 239 240 241 240 243 248 258 243 247 243 249 258 270 274 281 289 295 300 301 302 303 307 307 310 311 315 317 316 318 319 320 323 322
248 251 253 251 248 245 243 244 244 244 247 247 251 249 248 254 262 268 275 278 284 291 293 293 297 302 301 299 305 308 312 312 314 316 317 319 322 323
249 250 252 252 250 248 246 245 245 245 247 252 246 250 254 261 264 268 271 274 278 282 288 292 293 298 294 296 300 304 306 308 310 314 315 318 321 321
252 252 254 253 252 251 249 248 247 246 246 249 251 246 250 255 259 262 265 269 272 276 282 290 295 299 290 295 300 302 301 305 309 312 311 315 319 322
253 253 253 254 253 253 251 250 250 248 247 247 250 248 247 249 253 256 260 265 268 272 278 285 287 285 287 295 296 297 298 306 310 309 311 316 319 323
257 255 255 255 255 255 255 253 251 249 246 245 247 248 247 247 250 259 262 259 264 265 271 276 274 280 288 290 289 290 299 305 306 303 310 314 319 322
259 259 258 257 257 256 256 256 255 253 251 247 249 249 252 253 253 253 255 254 257 264 266 269 270 278 282 282 282 287 296 301 300 304 311 316 321 323
264 263 262 260 259 258 258 257 257 255 252 253 253 253 255 257 253 251 252 255 259 263 267 270 271 273 275 276 278 284 291 292 299 309 311 318 319 323
268 266 265 265 264 262 261 260 257 257 253 250 252 253 254 254 251 253 257 257 252 256 262 266 267 267 267 269 273 280 282 291 303 307 311 312 318 323
268 268 266 265 263 264 261 259 260 259 258 258 257 255 255 251 247 246 243 242 249 254 257 261 267 265 258 262 269 269 279 293 303 303 308 313 315 318
268 267 267 266 265 264 262 261 258 257 258 256 253 254 252 247 245 245 246 244 247 251 255 253 260 257 261 259 253 263 287 297 295 302 310 312 314 318
267 267 268 268 267 264 263 262 261 264 262 260 257 253 250 247 246 244 246 246 246 248 251 251 249 246 245 255 262 271 280 278 295 301 299 310 320 320
268 270 271 271 271 270 267 265 265 265 262 260 257 253 249 245 246 248 249 249 249 248 250 250 250 250 252 257 264 271 274 289 291 292 296 306 321 322
269 269 271 272 272 272 269 268 266 257 253 254 255 254 254 254 248 245 243 242 241 240 243 244 248 248 250 256 264 268 278 285 291 283 300 307 320 324
281 274 269 268 267 267 268 265 259 253 251 254 255 257 256 249 245 239 234 233 234 237 238 239 241 243 249 254 258 266 276 281 281 284 295 307 314 317
289 283 274 265 261 259 257 255 252 251 249 250 251 251 250 249 244 237 231 231 231 233 233 234 236 239 244 247 253 261 269 274 275 287 295 305 306 314
282 274 273 270 265 262 259 254 252 249 248 247 246 248 250 248 244 237 231 230 230 232 232 230 228 229 234 243 251 257 260 262 270 282 294 295 300 313
277 277 273 272 272 269 266 263 257 253 249 245 245 247 247 247 244 239 231 229 229 231 230 225 223 225 228 238 246 248 252 264 270 282 283 287 298 313
280 283 281 278 275 273 272 267 263 256 249 246 243 243 243 244 242 237 233 230 229 229 225 222 224 226 230 235 241 251 250 265 273 273 280 283 294 305
289 290 288 283 280 276 274 272 266 260 253 248 245 243 243 242 241 239 235 232 230 229 226 225 229 229 227 229 237 244 254 270 270 278 284 290 300 308
290 289 290 290 286 281 277 272 267 259 253 249 246 245 245 243 241 239 234 230 229 230 230 227 220 214 218 230 237 247 247 245 256 268 263 280 285 289
295 293 291 288 287 284 276 269 266 261 256 251 246 243 242 240 238 238 237 231 229 227 224 219 211 215 223 229 240 243 239 237 251 262 280 246 264 274